Regional Weather Roundup
Issued by NWS

Home | Current Version | Previous Version | Text Only | Print | Product List | Glossary On
Versions: 1 2 3 4 5 6 7 8 9 10 11 12 13 14 15 16 17 18 19 20 21 22 23 24 25 26 27 28 29 30 31 32 33 34 35 36 37 38 39 40 41 42 43 44 45 46 47 48 49 50
000
ASUS44 KBMX 241710
RWRAL

ALABAMA REGIONAL WEATHER ROUNDUP
NATIONAL WEATHER SERVICE BIRMINGHAM AL
1200 PM CDT THU MAY 24 2018

NOTE: "FAIR" INDICATES FEW OR NO CLOUDS BELOW 12,000 FEET
WITH NO SIGNIFICANT WEATHER AND/OR OBSTRUCTIONS TO VISIBILITY.

THE REMARK "TC" DENOTES TEMPERATURE IN DEGREES CELSIUS.

ALZ001>011-014-016>018-020-241800-
NORTH ALABAMA

CITY           SKY/WX    TMP DP  RH WIND       PRES   REMARKS
MUSCLE SHOALS  FAIR      89  62  40 NW8       30.11F
HUNTSVILLE     FAIR      89  65  44 NE3       30.10F HX  91
DECATUR        FAIR      87  65  47 NE5       30.10F
HALEYVILLE       N/A    N/A N/A N/A MISG        N/A
GADSDEN        FAIR      87  73  62 E5        30.10F HX  94
$$

ALZ012-013-022-023-030>036-040>044-241800-
WEST CENTRAL ALABAMA

CITY           SKY/WX    TMP DP  RH WIND       PRES   REMARKS
TUSCALOOSA     FAIR      90  70  51 E3        30.08F HX  95
DEMOPOLIS      FAIR      86  69  56 N3        30.09S
$$

ALZ015-024>026-033>036-041>044-241800-
CENTRAL ALABAMA

CITY           SKY/WX    TMP DP  RH WIND       PRES   REMARKS
BIRMINGHAM     PTSUNNY   82  71  69 E10       30.12F THUNDER
MONTGOMERY     FAIR      87  71  58 CALM      30.07F HX  93
SHELBY CO ARPT PTSUNNY   82  65  56 NE5       30.09F THUNDER
MAXWELL AFB    MOSUNNY   87  71  59 NE5       30.07F THUNDER HX  92
GREENVILLE     FAIR      82  70  66 SE3       30.08F
SELMA          PTSUNNY   86  70  58 VRB3      30.07F HX  90
PRATTVILLE     CLOUDY    83  70  65 N12G21    30.07F
BESSEMER       PTSUNNY   83  68  60 NE9       30.10F THUNDER
TALLADEGA      FAIR      85  71  63 CALM      30.10F HX  90
PELL CITY      SUNNY     84  73  70 E6        30.10F HX  91
MARION         PTSUNNY   83  71  65 CALM      30.07F
SYLACAUGA      FAIR      86  72  62 NE5       30.09F HX  92
$$

ALZ019-021-028-029-037-038-045>048-241800-
EAST CENTRAL ALABAMA

CITY           SKY/WX    TMP DP  RH WIND       PRES   REMARKS
ANNISTON       PTSUNNY   85  69  58 E5        30.09F
ALEXANDER CITY PTSUNNY   80  76  86 SW3       30.10F
AUBURN         CLOUDY    79  72  78 E7        30.12F THUNDER
$$

ALZ051>064-241800-
SOUTHWEST ALABAMA

CITY           SKY/WX    TMP DP  RH WIND       PRES   REMARKS
MOBILE         PTSUNNY   88  70  55 VRB5      30.10S HX  92
BROOKLEY FIELD FAIR      85  74  69 E7        30.10F HX  92
EVERGREEN      FAIR      85  71  63 N6        30.10F HX  90
$$

ALZ049-050-065>069-241800-
SOUTHEAST ALABAMA

CITY           SKY/WX    TMP DP  RH WIND       PRES   REMARKS
DOTHAN         FAIR      84  68  58 CALM      30.12F
OZARK          PTSUNNY   84  70  61 S5        30.08F
TROY           FAIR      83  71  67 E5        30.10F
EUFAULA        LGT RAIN  74  72  93 CALM      30.09F
$$



USA.gov is the U.S. government's official web portal to all federal, state and local government web resources and services.